San Luis Valley Regional Bergman Field
KALS : now visible

Airfield :











YOU CAN JOIN US ON...

 
LOGIN :

Register | Disclaimer

   EN    FR    IT 

 









Legend :    VFR   Marginal VFR   IFR   Intensive IFR   Very Intensive IFR
Visi :
Ceiling :
>= 8 km
>= 3000ft
5 to 8 km
1000 to 3000 ft
1500m to 5 km
500 to 1000 ft
800 to 1500m
200 to 500 ft
< 800m
< 200 ft
Symbols :   Thunderstorms  Fog  Heavy snow  Heavy precipitations  Wind > 20 kt






- Airport Elevation : 7539 ft


KALS - San Luis Valley Regional Bergman Field

CURRENT METAR :
  • 110352Z AUTO 28003KT 10SM CLR 04/M16 A2990 RMK AO2 SLP087 T00391161

EXPIRED METARs :
  • 110252Z AUTO 28005KT 10SM CLR 07/M18 A2989 RMK AO2 SLP086 T00671183 53008
  • 110152Z AUTO 29007KT 10SM FEW120 12/M18 A2987 RMK AO2 SLP078 T01221183

TAF KALS
Valid from the 11 at 03:00 until the 12 at 00:00 UTC


110257Z 1103/1124 30007KT P6SM SKC
FM110600 21007KT P6SM SKC
FM111800 28015G25KT P6SM SKC
KZDV FIR / North America



MET'MAP, your aeronautical weather chart ! - Copyright ORBIFLY December 2007 - Disclaimer

ORBIFLY MET'MAP TEAM :

Programming & Development : Alexandra Zaïnal
Concept & original design : Baudouin d'Aumeries
Assistance for programming : Marc-Olivier Méhu
Technical & hardware support : Manuel Goepfert

Contact : metmap@orbifly.com




SOURCES & CREDITS :

   NOAA       Earth
Advisory